Cloud_Cover
100 100 100 100 100 100 100 100 100 100 100 100 68 38 100 94 100 95 76 68 90 86 100 100 100 96 98 100 100 100 100 100 100 100 100 100 100 100 100 100 100 100 100
100 100 100 100 100 100 100 100 100 97 97 58 79 63 99 36 66 11 87 83 40 100 100 100 100 94 100 100 100 100 100 100 100 100 100 100 100 100 100 100 100 100 100
100 100 100 100 100 97 39 5 7 5 2 2 0 0 0 0 0 0 0 6 49 100 92 98 100 100 100 100 100 100 100 100 100 100 100 100 100 100 100 100 100 100 100
6 5 5 5 11 7 26 6 2 4 1 0 0 0 0 1 0 0 0 0 0 16 43 43 99 100 93 100 100 100 100 100 100 100 100 100 100 100 100 100 100 100 100
96 35 2 3 3 4 0 0 0 0 0 0 0 0 0 0 1 0 0 0 0 0 0 5 71 100 100 100 100 100 100 100 100 100 100 100 100 100 100 100 100 100 100
5 0 0 0 0 0 0 0 0 0 0 0 0 0 0 4 4 3 2 1 5 2 4 2 1 44 100 100 100 100 100 100 100 100 100 100 100 100 100 100 100 100 100
0 0 0 0 0 0 0 2 0 0 0 0 0 0 0 0 32 1 5 3 4 0 4 5 0 5 60 100 100 100 100 100 100 100 100 100 100 100 100 100 100 100 100
0 0 0 0 0 0 0 0 0 0 0 0 0 0 0 2 82 3 3 20 6 4 1 0 0 5 4 42 100 100 100 100 100 100 100 100 100 100 100 100 100 100 100
0 0 0 0 0 0 0 0 0 0 0 0 0 0 2 5 100 100 98 73 100 100 78 12 5 0 0 6 82 100 100 100 100 100 100 100 100 100 100 100 100 100 100
0 0 0 0 0 0 0 0 0 0 0 0 0 0 0 4 40 100 100 100 100 100 100 100 95 9 3 0 28 21 100 100 100 100 100 100 100 100 100 100 100 100 100
0 0 0 0 0 0 0 0 0 0 0 5 0 0 0 5 39 100 100 100 18 5 0 0 5 5 5 0 0 5 5 100 100 100 100 100 100 100 100 100 100 100 100
0 0 0 0 0 0 0 0 0 0 1 2 2 0 0 76 100 6 90 100 100 100 82 12 3 0 3 3 0 0 5 5 40 100 100 100 100 100 100 100 100 100 100
0 0 0 0 0 0 0 0 0 0 0 3 4 0 0 10 98 57 38 100 100 100 100 100 52 0 0 0 0 0 3 5 5 5 100 100 100 100 100 100 100 100 100
0 0 0 0 0 0 0 0 0 5 5 4 5 5 4 1 2 10 33 19 100 100 100 100 100 85 8 2 0 0 0 0 4 0 4 3 96 100 100 99 74 20 96
0 0 0 0 0 3 5 5 4 5 5 5 18 5 5 5 5 6 95 78 28 100 93 18 5 4 3 17 5 1 0 0 0 0 0 0 0 9 90 100 100 53 5
0 0 0 0 0 3 5 4 5 5 5 7 34 15 5 5 5 5 5 78 95 19 37 98 100 97 9 0 4 5 5 1 0 0 0 0 0 0 0 4 50 98 80
0 0 0 0 0 0 5 5 5 5 5 5 5 8 5 5 5 5 7 5 16 5 5 5 5 5 4 1 4 5 5 5 5 0 0 0 0 0 0 4 2 0 7
0 0 1 2 0 0 5 8 18 5 5 5 5 5 5 5 5 5 11 54 62 17 36 5 5 5 5 5 5 5 5 5 5 5 3 0 0 0 0 0 4 2 0
0 0 5 5 5 5 5 14 7 18 7 24 5 5 5 5 5 5 5 4 5 6 54 82 14 5 6 5 76 26 39 5 5 36 10 5 5 5 0 0 0 0 0
0 1 5 7 13 5 5 14 47 75 5 5 5 5 5 5 5 5 5 5 5 40 85 99 95 62 62 33 79 23 10 5 5 5 5 5 5 0 0 0 0 1 0
0 5 10 74 54 34 28 71 97 77 35 5 5 5 5 6 5 5 4 5 54 88 100 100 64 72 43 31 41 5 26 13 5 5 5 5 70 3 0 0 0 0 18
5 5 82 100 65 70 65 99 96 85 71 5 5 5 5 32 98 5 35 5 6 76 100 100 78 74 91 100 77 50 75 83 84 3 67 5 32 4 2 5 2 18 100
5 85 100 98 42 92 98 100 100 100 21 5 5 5 5 5 90 99 33 6 3 5 37 100 100 100 98 73 100 85 82 88 92 8 11 5 68 5 5 4 5 75 99
50 100 100 90 32 96 100 100 100 48 5 2 5 5 5 56 97 37 8 30 5 5 40 88 100 86 74 40 99 100 92 76 13 5 100 89 5 5 0 0 0 31 54
97 100 100 66 82 37 100 100 91 14 5 5 5 32 49 46 99 6 65 100 98 9 5 52 17 51 31 99 100 100 96 98 91 6 89 84 4 5 5 5 1 37 100
100 100 100 77 65 40 100 100 8 5 5 5 92 100 100 36 51 34 100 99 97 82 100 92 8 8 99 100 100 100 100 100 100 94 99 100 5 20 10 74 99 100 100